Location: Saint-Palais-sur-Mer
(45.6429°N, 1.0859°W)
Time: 00:38:50
(UTC+01:00)

Tiros 1 despin weight - Pass Details

Date: 11 February 2026
Orbit: 556 x 593 km, 48.2° (Epoch: 13 March)

Event Time Altitude Azimuth Distance (km) Brightness Sun altitude
Rises 22:49:59 0° 287° (WNW) 2,739 ? -45.4°
Enters shadow 22:50:02 - 287° (WNW) 2,723 ? -45.4°
Reaches altitude 10° 22:52:14 10° 288° (WNW) 1,846 - -45.7°
Maximum altitude 22:56:27 87° 18° (NNE) 568 - -46.3°
Drops below altitude 10° 23:00:43 10° 108° (ESE) 1,861 - -46.9°
Sets 23:02:59 0° 108° (ESE) 2,763 - -47.2°
